Home   Weather   Alamogordo   Past weeks
Flag for USA

Past Weather in Alamogordo, New Mexico, USA — Yesterday and Last 2 Weeks

Now
64 °F

Clear.


Feels Like: 64 °F
Forecast: 92 / 70 °F
Wind: 5 mph from Northeast

Location: Alamogordo-White

Current Time: Aug 21, 2019 at 6:52:45 am

Latest Report: Aug 21, 2019 at 6:15 am


Visibility: 10 mi

Pressure: 30.13 "Hg (25.80 "Hg at 1322m altitude)

Humidity: 73%

Dew Point: 55 °F

Location of AlamogordoLocation

Past Weather in Alamogordo — Graph

°F

Alamogordo Temperature Yesterday

Maximum temperature yesterday: 97 °F (at 1:55 pm)
Minimum temperature yesterday: 73 °F (at 8:35 pm)
Average temperature yesterday: 82 °F

High & Low Weather Summary for the Past Weeks

 TemperatureHumidityPressure
High100 °F (Aug 7, 3:35 pm)100% (Aug 10, 4:15 am)30.31 "Hg (Aug 10, 4:15 am)
Low63 °F (Aug 15, 6:35 am)9% (Aug 17, 3:35 pm)29.90 "Hg (Aug 17, 6:15 pm)
Average83 °F35%30.08 "Hg
* Reported Aug 6 5:15 am — Aug 21 5:35 am, Alamogordo. Weather by CustomWeather, © 2019

Note: Actual official high and low records may vary slightly from our data, if they occured in-between our weather recording intervals... More about our weather records

Advertising

Alamogordo Weather History for the Previous 24 Hours

Scroll right to see more
 ConditionsComfort  
Time TempWeatherWind HumidityBarometerVisibility
5:35 am
Wed, Aug 21
68 °FClear.No wind69%30.12 "Hg10 mi
5:15 am66 °FClear.3 mph73%30.12 "Hg10 mi
4:55 am68 °FPassing clouds.3 mph64%30.12 "Hg10 mi
4:35 am68 °FPassing clouds.No wind69%30.12 "Hg10 mi
4:15 am68 °FPassing clouds.No wind64%30.12 "Hg10 mi
3:35 am66 °FClear.No wind68%30.13 "Hg10 mi
3:15 am66 °FClear.5 mph68%30.12 "Hg10 mi
2:35 am68 °FClear.6 mph69%30.11 "Hg10 mi
2:15 am68 °FClear.7 mph64%30.11 "Hg10 mi
1:55 am68 °FClear.8 mph64%30.12 "Hg10 mi
1:35 am72 °FClear.7 mph57%30.13 "Hg10 mi
1:15 am72 °FClear.7 mph57%30.13 "Hg10 mi
12:55 am72 °FClear.5 mph61%30.12 "Hg10 mi
12:35 am73 °FClear.8 mph57%30.11 "Hg10 mi
12:15 am75 °FClear.6 mph50%30.10 "Hg10 mi
11:35 pm
Tue, Aug 20
81 °FPassing clouds.6 mph39%30.11 "Hg10 mi
11:15 pm82 °FPassing clouds.5 mph32%30.11 "Hg10 mi
10:55 pm82 °FClear.15 mph32%30.11 "Hg10 mi
10:35 pm81 °FClear.21 mph34%30.11 "Hg10 mi
9:55 pm75 °FThundershowers. Passing clouds.21 mph50%30.15 "Hg10 mi
9:35 pm73 °FThunderstorms. Partly cloudy.20 mph57%30.16 "Hg10 mi
8:55 pm75 °FThunderstorms. Partly cloudy.15 mph54%30.14 "Hg10 mi
8:35 pm73 °FStrong thunderstorms. Passing clouds.23 mph61%30.14 "Hg5 mi
8:15 pm81 °FThundershowers. Passing clouds.18 mph45%30.10 "Hg9 mi
7:55 pm84 °FPassing clouds.9 mph37%30.08 "Hg10 mi
7:35 pm84 °FSunny.9 mph40%30.08 "Hg10 mi
7:15 pm84 °FPassing clouds.7 mph40%30.08 "Hg10 mi
6:55 pm84 °FPassing clouds.7 mph48%30.07 "Hg10 mi
6:35 pm84 °FSunny.8 mph45%30.07 "Hg10 mi
6:15 pm84 °FSunny.7 mph48%30.07 "Hg10 mi
5:55 pm84 °FSunny.9 mph51%30.07 "Hg10 mi
5:35 pm84 °FSunny.6 mph48%30.07 "Hg10 mi
5:15 pm84 °FSunny.10 mph51%30.07 "Hg10 mi
4:55 pm84 °FSunny.6 mph55%30.06 "Hg10 mi
4:35 pm81 °FSunny.5 mph58%30.08 "Hg10 mi
4:15 pm77 °FBroken clouds.10 mph61%30.08 "Hg10 mi
3:55 pm81 °FThundershowers. Broken clouds.7 mph54%30.10 "Hg9 mi
3:35 pm79 °FThunderstorms. Mostly cloudy.8 mph48%30.11 "Hg5 mi
3:15 pm82 °FLight rain. Broken clouds.12 mph45%30.11 "Hg5 mi
2:35 pm95 °FPartly sunny.6 mph20%30.08 "Hg10 mi
1:55 pm97 °FSunny.7 mph19%30.10 "Hg10 mi
1:35 pm95 °FSunny.6 mph22%30.11 "Hg10 mi
1:15 pm93 °FThundershowers. Sunny.3 mph23%30.12 "Hg10 mi
12:55 pm93 °FPassing clouds.No wind23%30.13 "Hg10 mi
12:35 pm91 °FThundershowers. Passing clouds.5 mph26%30.14 "Hg10 mi
12:15 pm90 °FScattered clouds.3 mph27%30.15 "Hg10 mi
11:55 am90 °FScattered clouds.5 mph29%30.15 "Hg10 mi
11:35 am90 °FThundershowers. Sunny.6 mph29%30.15 "Hg10 mi
11:15 am90 °FThundershowers. Scattered clouds.6 mph27%30.15 "Hg10 mi
10:55 am88 °FScattered clouds.6 mph31%30.16 "Hg10 mi
10:35 am84 °FSunny.8 mph33%30.16 "Hg10 mi
10:15 am84 °FSunny.3 mph35%30.16 "Hg10 mi
9:55 am82 °FPassing clouds.3 mph37%30.16 "Hg10 mi
9:35 am82 °FThunderstorms. Scattered clouds.5 mph37%30.16 "Hg3 mi
9:15 am84 °FScattered clouds.8 mph35%30.15 "Hg5 mi
8:55 am82 °FScattered clouds.6 mph35%30.15 "Hg10 mi
8:35 am81 °FThundershowers. Partly sunny.7 mph34%30.15 "Hg10 mi
8:15 am81 °FPartly sunny.7 mph34%30.15 "Hg10 mi
7:35 am77 °FPartly sunny.6 mph39%30.14 "Hg10 mi
7:15 am75 °FPartly sunny.7 mph41%30.14 "Hg10 mi
6:55 am77 °FOvercast.5 mph36%30.13 "Hg10 mi
6:35 am77 °FPartly sunny.5 mph36%30.12 "Hg10 mi
6:15 am77 °FPassing clouds.7 mph36%30.12 "Hg10 mi
Weather by CustomWeather, © 2019

See weather overview